Groton, CT

5:18 AM EDT on August 17, 2017 (GMT -0400)
Groton-New London

Weather History for KGON - October, 2010

Change the Weather History Date:

Tuesday, October 19, 2010

  Actual Average Record
Temperature  
Mean Temperature 50 °F -  
Max Temperature 57 °F 60 °F 77 °F (2016)
Min Temperature 43 °F 42 °F 25 °F (1974)
Degree Days  
Heating Degree Days 14    
Moisture  
Dew Point 37 °F    
Average Humidity 62    
Maximum Humidity 86    
Minimum Humidity 42    
Precipitation  
Precipitation 0.00 in - - ()
Sea Level Pressure  
Sea Level Pressure 29.92 in    
Wind  
Wind Speed 5 mph (WNW)    
Max Wind Speed 13 mph    
Max Gust Speed -    
Visibility 10 miles    
Events      
Averages and records for this station are not official NWS values.
T = Trace of Precipitation, MM = Missing Value Source: NWS Daily Summary

Daily Weather History Graph

Daily Weather History Graph

Search for Another Location

Airport or City:

Trip Planner

Search our weather history database for the weather conditions in past years. The results will help you decide how hot, cold, wet, or windy it might be!

Date:

Astronomy

Oct. 19, 2010 Rise Set
Actual Time 7:04 AM EDT 6:01 PM EDT
Civil Twilight 6:36 AM EDT 6:29 PM EDT
Nautical Twilight 6:04 AM EDT 7:01 PM EDT
Astronomical Twilight 5:32 AM EDT 7:33 PM EDT
Moon 4:10 PM EDT (10/19) 3:45 AM EDT (10/19)
Length of Visible Light 11h 52m
Length of Day
10h 56m
Waxing Gibbous, 89% of the Moon is Illuminated
Oct 19
Waxing Gibbous
Oct 22
Full
Oct 30
Last Quarter
Nov 6
New
Nov 13
First Quarter

Hourly Weather History & Observations

Time (EDT) Temp. Windchill Dew Point Humidity Pressure Visibility Wind Dir Wind Speed Gust Speed Precip Events Conditions
12:56 AM 48.0 °F - 34.0 °F 58% 29.94 in 10.0 mi NNW 8.1 mph - N/A   Clear
1:56 AM 48.0 °F - 33.1 °F 56% 29.94 in 10.0 mi NW 8.1 mph - N/A   Clear
2:56 AM 46.9 °F - 32.0 °F 56% 29.92 in 10.0 mi NNW 6.9 mph - N/A   Clear
3:56 AM 46.9 °F - 32.0 °F 56% 29.92 in 10.0 mi North 5.8 mph - N/A   Partly Cloudy
4:56 AM 46.9 °F - 33.1 °F 59% 29.93 in 10.0 mi North 4.6 mph - N/A   Overcast
5:56 AM 46.0 °F - 34.0 °F 63% 29.93 in 10.0 mi Calm Calm - N/A   Partly Cloudy
6:56 AM 45.0 °F - 37.0 °F 74% 29.94 in 10.0 mi Calm Calm - N/A   Overcast
7:56 AM 45.0 °F - 37.9 °F 76% 29.94 in 10.0 mi Calm Calm - N/A   Scattered Clouds
8:56 AM 46.9 °F - 37.9 °F 71% 29.95 in 10.0 mi Calm Calm - N/A   Overcast
9:56 AM 50.0 °F - 35.1 °F 57% 29.94 in 10.0 mi North 3.5 mph - N/A   Overcast
10:56 AM 53.1 °F - 34.0 °F 48% 29.94 in 10.0 mi West 3.5 mph - N/A   Mostly Cloudy
11:56 AM 55.0 °F - 33.1 °F 43% 29.92 in 10.0 mi South 3.5 mph - N/A   Clear
12:56 PM 55.9 °F - 34.0 °F 44% 29.89 in 10.0 mi South 9.2 mph - N/A   Clear
1:56 PM 57.0 °F - 34.0 °F 42% 29.88 in 10.0 mi WSW 12.7 mph - N/A   Clear
3:56 PM 57.0 °F - 37.9 °F 49% 29.88 in 10.0 mi WSW 10.4 mph - N/A   Clear
4:56 PM 57.0 °F - 39.0 °F 51% 29.88 in 10.0 mi WSW 9.2 mph - N/A   Clear
5:56 PM 54.0 °F - 39.9 °F 59% 29.88 in 10.0 mi WSW 5.8 mph - N/A   Clear
6:56 PM 54.0 °F - 41.0 °F 62% 29.90 in 10.0 mi WSW 5.8 mph - N/A   Clear
7:56 PM 55.0 °F - 43.0 °F 64% 29.91 in 10.0 mi Variable 3.5 mph - N/A   Clear
8:56 PM 45.0 °F 43.5 °F 41.0 °F 86% 29.92 in 10.0 mi NNE 3.5 mph - N/A   Clear
9:56 PM 45.0 °F - 41.0 °F 86% 29.94 in 10.0 mi Calm Calm - N/A   Clear
10:56 PM 44.1 °F 42.5 °F 39.9 °F 85% 29.94 in 10.0 mi NNE 3.5 mph - N/A   Clear
11:56 PM 43.0 °F - 39.0 °F 86% 29.94 in 10.0 mi Calm Calm - N/A   Clear